sat.trackr.live / text

‹ back to catalog

STARLINK-34123

NORAD 63891 · 2025-095B

PAYLOAD ACTIVE UNKNOWN

§ Identity

Operator
Country
US
Launch date
2025-05-10
Launch site
AFETR
Launch vehicle
Mass (kg)
RCS (m²)

Purposes: comms

External: N2YO · Heavens-Above · Gunter

§ Orbital elements

Epoch: 2026-09-19T02:26:59.682624Z

Period
94.27 min
Inclination
43.0006°
Eccentricity
0.0001634
Mean motion
15.27591838 rev/d
Perigee alt
481.9 km
Apogee alt
484.1 km
Semi-major
6,861.2 km
B*
4.7084e-4
RAAN
164.2844°
Arg perigee
268.1334°
Mean anomaly
91.9330°
Rev number
7,736

§ Raw data

STARLINK-341231 63891U 25095B   26262.10207966  .00012722  00000+0  47084-3 0  99962 63891  43.0006 164.2844 0001634 268.1334  91.9330 15.27591838 77369

JSON: /api/v1/satellites/63891 · /tle

For live sub-satellite position, see the globe view (requires WebGL).

§ Visibility from observer

Set your observer location to see the next 7 days of passes ≥ 10°. The values pass through the URL so the page stays shareable.

No JS? Fill the form by hand. The geolocation button needs JavaScript.